Home   Weather   Helsinki   Past weeks

Flag for Finland Past Weather in Helsinki, Finland — Yesterday and Last 2 Weeks

Now
37 °F

Partly sunny.


Feels Like: 28 °F
Forecast: 15 / 26 °F
Wind: 16 mph from Northwest

Location: Helsinki Malmi Airport

Current Time: Dec 5, 2016 at 2:43:20 pm

Latest Report: Dec 5, 2016 at 2:20 pm


Visibility: N/A

Pressure: 29.45 "Hg

Humidity: 70%

Dew Point: 28 °F

Location of HelsinkiLocation

Past Weather in Helsinki — Graph

°F

Helsinki Temperature Yesterday

Maximum temperature yesterday: 37 °F (at 9:50 pm)
Minimum temperature yesterday: 10 °F (at 9:20 am)
Average temperature yesterday: 22 °F

High & Low Weather Summary for the Past Weeks

 TemperatureHumidityPressure
High46 °F (Nov 21, 10:50 am)100% (Nov 20, 2:50 pm)30.15 "Hg (Nov 20, 2:50 pm)
Low10 °F (Dec 4, 9:20 am)63% (Nov 28, 1:20 am)29.06 "Hg (Nov 26, 5:20 pm)
Average32 °F88%29.75 "Hg
* Reported Nov 20 1:20 pm — Dec 5 1:20 pm, Helsinki, Weather by CustomWeather, © 2016

Note: Actual official high and low records may vary slightly from our data, if they occured in-between our weather recording intervals... More about our weather records

Advertising

Helsinki Weather History for the Previous 24 Hours

Scroll right to see more
 ConditionsComfort  
Time TempWeatherWind HumidityBarometerVisibility
1:20 pm
Mon, Dec 5
37 °FScattered clouds.15 mph75%29.42 "HgN/A
12:50 pm39 °FPassing clouds.15 mph70%29.42 "HgN/A
12:20 pm39 °FPassing clouds.17 mph65%29.42 "HgN/A
11:50 am39 °FPassing clouds.17 mph70%29.39 "HgN/A
11:20 am39 °FPassing clouds.18 mph75%29.39 "HgN/A
10:50 am39 °FScattered clouds.16 mph81%29.36 "HgN/A
10:20 am41 °FScattered clouds.16 mph76%29.36 "HgN/A
9:50 am41 °FPartly sunny.21 mph81%29.33 "HgN/A
9:20 am43 °FBroken clouds.21 mph76%29.33 "HgN/A
8:50 am43 °FPassing clouds.21 mph76%29.33 "HgN/A
8:20 am45 °FPassing clouds.20 mph71%29.30 "HgN/A
7:50 am45 °FPassing clouds.16 mph71%29.33 "HgN/A
7:20 am43 °FPartly cloudy.13 mph76%29.33 "HgN/A
6:50 am41 °FPassing clouds.13 mph81%29.33 "HgN/A
6:20 am41 °FPassing clouds.13 mph76%29.36 "HgN/A
5:50 am41 °FPassing clouds.12 mph81%29.36 "HgN/A
5:20 am41 °FPassing clouds.13 mph81%29.39 "HgN/A
4:50 am41 °FPassing clouds.13 mph81%29.42 "HgN/A
4:20 am39 °FPassing clouds.13 mph87%29.45 "HgN/A
3:50 am39 °FPassing clouds.12 mph87%29.45 "HgN/A
3:20 am39 °FOvercast.10 mph87%29.47 "HgN/A
2:50 am37 °FMostly cloudy.10 mph93%29.50 "HgN/A
2:20 am37 °FLow clouds.10 mph93%29.50 "HgN/A
1:50 am37 °FLow clouds.12 mph93%29.53 "HgN/A
1:20 am37 °FLow clouds.12 mph93%29.53 "HgN/A
12:50 am37 °FLow clouds.13 mph93%29.56 "HgN/A
12:20 am37 °FFog.14 mph93%29.59 "Hg3 mi
11:50 pm
Sun, Dec 4
37 °FFog.13 mph87%29.59 "Hg2 mi
11:20 pm37 °FOvercast.14 mph87%29.62 "HgN/A
10:50 pm37 °FOvercast.14 mph87%29.62 "HgN/A
10:20 pm37 °FLow clouds.13 mph87%29.65 "HgN/A
9:50 pm37 °FLow clouds.15 mph93%29.68 "HgN/A
9:20 pm36 °FLow clouds.15 mph93%29.71 "HgN/A
8:50 pm36 °FPartly cloudy.15 mph93%29.77 "HgN/A
8:20 pm34 °FDrizzle. Low clouds.14 mph93%29.77 "Hg4 mi
7:50 pm32 °FLight rain. Passing clouds.18 mph93%29.80 "Hg2 mi
7:20 pm32 °FLight snow. Passing clouds.17 mph93%29.83 "Hg2 mi
6:50 pm32 °FLight snow. Passing clouds.16 mph93%29.86 "Hg1 mi
6:20 pm30 °FLight snow. Passing clouds.15 mph93%29.89 "Hg2 mi
5:50 pm30 °FLight freezing rain. Partly cloudy.15 mph93%29.92 "Hg3 mi
5:20 pm30 °FLight snow. Partly cloudy.13 mph86%29.95 "Hg5 mi
4:50 pm28 °FLight snow. Passing clouds.8 mph80%29.98 "HgN/A
4:20 pm18 °FPartly cloudy.1 mph93%30.01 "HgN/A
3:50 pm18 °FPassing clouds.2 mph86%30.04 "HgN/A
3:20 pm18 °FClear.1 mph86%30.07 "Hg10 mi
2:50 pm19 °FSunny.1 mph79%30.07 "Hg10 mi
2:20 pm19 °FSunny.2 mph79%30.09 "Hg10 mi
Weather by CustomWeather, © 2016

See weather overviewHow to use our weather pages